Terminal Aerodrome Forecast
Issued by NWS Duluth, MN

Home | Current Version | Previous Version | Text Only | Print | Product List | Glossary On
Versions: 1 2 3 4 5 6 7 8 9 10 11 12 13 14 15 16 17 18 19
000
FTUS43 KDLH 010500
TAFINL
TAF
KINL 010535Z 0106/0206 32003KT P6SM SKC
      TEMPO 0110/0113 1SM BR SCT003
     FM011600 33006KT P6SM SCT100
     FM020000 VRB05KT P6SM SKC=

USA.gov is the U.S. government's official web portal to all federal, state and local government web resources and services.